GFSSE_sfc_wetblb_057.txt.gz
Wetbulb
66.36 68.82 71.86 73.04 73.52 73.46 73.72 73.07 73.16 73.43 73.10 71.91 71.39 70.78 70.15 69.78 69.41 69.18 68.96 68.43 68.02 68.35 69.15 69.57 70.00 70.05 69.95 70.31 70.02 69.79 70.02 69.91 69.85 69.90 69.73 69.45 69.46 69.83 70.20 70.19 70.92 69.85 71.72
68.75 70.23 71.50 72.29 73.06 72.96 73.30 73.35 73.13 72.89 72.86 71.68 70.98 70.44 69.98 69.48 68.91 68.69 68.72 68.18 67.49 67.18 67.31 68.41 69.21 69.54 69.32 68.97 69.61 70.36 70.17 69.76 69.43 69.12 68.87 68.79 68.91 68.51 68.99 68.64 70.10 69.61 70.59
69.41 70.66 71.34 72.68 73.41 73.31 73.23 73.07 72.71 72.78 72.45 71.66 70.82 70.15 69.76 69.20 68.34 68.23 68.08 67.41 67.06 66.81 66.45 67.05 67.89 68.35 68.58 68.09 69.68 69.90 69.15 68.08 67.25 66.75 66.54 64.22 65.70 68.03 68.13 67.69 67.73 68.84 69.37
70.20 70.84 70.70 71.47 73.09 73.46 73.33 73.11 72.87 72.43 72.59 71.36 70.37 70.00 69.61 68.99 68.08 67.62 66.94 66.21 65.71 65.42 65.38 65.46 66.04 66.79 67.22 66.63 68.21 67.60 66.70 65.81 65.05 64.27 62.12 62.35 63.41 67.16 67.38 67.11 67.20 67.49 67.54
70.05 70.86 70.30 71.08 71.84 72.91 73.14 73.01 72.84 72.49 72.63 71.65 70.52 69.90 69.42 68.81 68.14 67.25 66.15 65.04 64.32 63.78 63.78 63.84 64.01 64.93 65.13 65.91 66.55 66.12 64.99 63.78 62.46 60.03 58.91 60.07 60.41 65.15 66.65 66.47 65.99 66.12 66.31
69.82 70.60 69.94 71.40 72.64 72.79 72.89 72.97 72.62 71.93 71.85 71.76 70.57 69.75 69.27 68.73 68.03 67.27 66.51 65.28 63.67 62.57 62.36 62.23 62.28 63.16 63.24 63.93 64.32 63.96 62.63 61.80 59.42 55.96 56.97 59.65 59.50 64.76 65.31 65.44 65.26 65.09 65.68
68.88 69.79 69.92 70.66 71.86 72.22 72.57 72.64 72.31 71.80 71.52 71.14 71.04 69.61 69.12 68.64 68.01 67.40 66.80 66.02 64.53 61.93 61.11 60.81 60.85 61.59 61.52 61.87 62.86 61.65 59.58 58.69 53.57 54.01 54.89 57.28 60.55 64.50 64.59 64.47 64.40 64.48 64.62
68.35 69.65 69.89 67.77 69.01 70.52 71.20 71.49 71.59 71.68 71.43 70.98 70.76 69.69 69.14 68.64 68.05 67.38 66.79 66.16 64.87 61.96 60.04 59.37 59.64 60.08 60.02 60.20 60.37 58.41 56.37 55.02 51.66 51.68 53.43 55.63 64.28 64.86 64.82 64.57 64.51 64.36 64.33
64.64 67.35 69.55 68.85 67.95 67.17 68.68 68.98 69.85 70.11 70.43 70.19 70.00 69.76 69.14 68.71 68.40 67.29 66.90 66.15 64.82 62.67 60.90 59.58 59.02 58.86 58.45 58.63 58.49 57.04 54.92 53.65 46.93 50.35 53.88 55.79 63.96 64.35 65.12 64.44 64.19 64.00 63.76
54.61 56.29 62.24 67.20 67.40 67.63 68.40 65.59 66.65 68.04 68.62 69.05 68.50 67.41 66.31 66.43 66.76 66.17 64.94 66.05 64.81 62.98 61.29 59.86 58.86 58.43 58.07 57.55 56.46 54.79 52.81 50.87 44.76 47.65 50.55 56.74 62.61 63.25 64.08 64.86 64.45 63.99 63.88
50.54 51.11 51.94 60.68 63.22 68.10 68.48 65.98 64.60 65.52 66.16 66.18 65.72 64.29 63.10 64.88 65.90 65.05 63.98 65.12 64.80 63.82 62.31 60.50 58.70 57.15 55.31 55.56 54.43 52.36 49.38 43.81 44.61 46.74 49.88 59.95 60.98 61.96 62.34 62.45 63.06 64.33 64.98
46.90 50.81 50.03 52.02 55.69 59.41 66.45 66.88 66.61 66.73 67.34 67.40 65.74 65.17 65.14 65.53 65.13 64.41 61.79 62.63 63.07 62.84 63.48 60.97 58.71 55.73 51.58 47.45 47.14 49.03 44.08 43.90 44.53 45.64 52.23 60.44 61.78 62.45 62.05 61.45 61.05 61.08 61.54
45.26 48.71 51.40 52.14 52.37 52.64 59.30 66.07 66.82 65.93 66.24 66.98 64.67 65.02 65.84 64.23 63.33 62.55 60.89 59.46 58.82 57.82 57.08 55.38 52.79 51.47 49.97 49.38 48.70 47.63 46.48 45.08 44.31 46.83 54.74 59.48 60.54 61.51 61.81 61.63 61.45 61.29 60.69
46.11 48.74 49.82 51.18 52.55 52.55 52.60 62.68 65.77 64.45 64.94 65.26 65.42 65.47 64.30 63.45 61.50 61.38 61.14 60.72 59.35 57.16 55.29 54.37 53.00 52.44 51.58 51.20 50.37 49.38 48.05 46.38 46.21 48.56 52.59 56.18 58.20 59.90 60.37 60.69 60.46 60.36 60.32
46.33 47.60 48.59 50.07 51.93 53.25 51.66 63.90 63.06 62.38 62.54 62.91 64.15 64.98 64.92 63.19 62.54 62.08 60.64 59.75 58.73 57.68 55.37 53.37 52.58 51.89 51.66 51.43 50.39 49.06 47.74 46.11 45.22 46.25 49.10 53.02 55.69 54.61 55.70 57.45 58.28 58.90 59.19
46.49 46.97 48.71 51.86 52.93 53.52 57.42 60.77 59.90 59.98 59.76 60.02 60.14 61.63 62.53 62.25 60.37 59.11 57.94 57.06 56.42 55.85 54.98 54.32 52.92 51.10 50.38 51.85 50.54 48.94 46.13 45.10 45.20 43.40 42.41 43.61 51.13 51.00 51.14 54.06 55.07 56.47 57.39
46.22 46.98 48.79 52.53 55.47 54.44 57.59 57.49 57.30 57.52 57.78 57.59 57.00 57.69 58.35 59.08 57.96 56.79 55.77 54.90 54.48 54.51 53.57 51.60 49.54 48.55 48.11 48.09 47.10 45.65 44.28 43.17 42.09 40.88 39.59 39.10 39.94 45.22 47.51 50.52 51.88 52.54 53.46
45.38 46.68 48.32 52.82 54.19 54.74 55.25 55.08 54.98 55.06 55.28 55.32 55.52 55.21 55.09 55.13 55.68 54.76 53.69 52.51 52.44 50.68 49.46 47.82 45.84 44.52 43.51 44.56 43.39 42.26 41.59 40.25 38.91 38.00 36.73 36.57 36.69 36.73 39.70 45.65 47.42 48.44 50.31
45.25 46.42 46.87 48.83 52.10 52.03 51.72 50.55 49.97 49.75 50.46 51.57 52.24 51.86 51.23 50.96 51.52 51.10 49.63 48.56 48.61 46.19 42.63 40.76 39.38 40.89 42.79 42.89 41.85 40.27 38.00 35.48 33.58 35.13 34.45 34.09 33.82 33.95 33.69 39.26 40.78 43.58 46.99
44.78 45.80 46.08 48.79 49.44 48.94 47.97 46.20 45.48 44.71 44.20 45.80 47.46 47.43 46.60 45.92 45.39 45.53 44.27 44.74 43.41 39.76 37.18 36.80 37.02 36.85 38.78 40.23 39.99 37.15 35.54 34.26 32.28 30.93 30.94 32.99 32.43 31.87 31.93 31.89 32.04 34.89 44.22
44.00 44.60 45.11 47.53 47.65 46.88 46.51 45.64 45.30 41.89 41.75 41.47 41.95 42.00 42.52 40.57 39.44 39.00 38.42 38.26 38.05 37.10 35.63 35.21 34.22 37.79 33.37 34.53 35.91 35.21 34.39 31.64 30.62 29.72 29.07 29.19 30.29 30.70 31.03 31.18 31.53 32.17 34.06
43.84 44.33 44.62 46.00 47.26 46.86 47.42 41.35 41.47 40.27 37.66 38.17 39.18 38.81 39.00 37.04 36.56 36.93 36.08 34.53 33.96 33.30 32.71 32.45 32.30 30.48 29.61 29.84 37.35 36.17 32.96 35.66 32.82 29.94 28.37 29.85 27.70 29.16 29.94 30.58 30.37 31.29 31.03
43.24 44.01 45.24 45.69 46.91 47.66 40.36 39.11 37.78 37.98 37.53 36.77 36.61 36.27 35.96 35.10 34.65 34.08 33.10 32.27 31.34 31.29 30.36 29.77 30.30 29.90 27.75 28.43 29.01 33.93 28.03 30.36 27.92 32.77 27.92 26.98 26.75 26.81 27.23 28.60 29.52 30.35 29.34
43.92 44.32 45.55 45.11 46.58 41.54 41.10 39.84 40.04 39.81 38.60 36.22 35.28 34.43 32.59 32.51 31.90 31.97 31.54 30.87 30.15 29.71 29.33 29.07 29.54 28.63 28.52 27.10 28.31 29.23 26.36 26.94 24.65 24.25 25.58 25.86 26.63 26.99 25.40 26.58 26.94 28.72 27.82
43.97 44.19 45.06 45.57 42.28 40.65 40.90 40.91 40.49 39.23 34.94 34.31 33.46 32.60 30.11 30.33 30.54 30.39 30.02 29.55 29.22 29.69 28.42 28.75 28.51 28.23 28.19 27.13 26.32 26.06 25.91 24.73 24.33 23.24 22.00 22.75 24.46 24.78 25.04 24.92 25.19 25.22 25.79
42.86 44.25 45.34 45.10 41.59 39.41 40.30 39.72 37.72 34.48 32.89 32.42 31.71 30.56 29.02 28.51 28.64 28.91 29.13 28.18 28.21 28.47 28.50 28.17 27.64 27.98 27.44 27.06 26.60 26.05 25.30 23.84 22.66 21.39 20.52 20.44 20.97 23.60 24.20 24.55 24.40 24.75 24.10

GFSSE_sfc_wetblb_060.txt.gz
Wetbulb
65.70 68.07 71.57 72.82 72.64 72.70 72.96 73.01 72.86 73.01 72.26 71.15 70.61 70.08 69.60 69.23 69.10 68.63 68.16 67.91 68.49 69.11 69.69 70.30 70.56 70.23 69.92 70.79 70.80 70.37 70.05 69.85 69.50 69.42 68.97 68.88 69.25 69.79 69.91 69.98 70.34 69.33 71.36
67.81 69.46 70.99 72.32 73.26 72.95 72.87 72.77 72.66 72.77 72.01 70.79 70.25 69.91 69.19 68.74 68.65 68.53 68.05 67.48 67.11 67.66 69.04 69.12 69.44 69.02 70.15 70.77 70.01 69.30 68.85 68.29 67.91 67.50 67.07 67.66 68.46 68.24 68.52 68.06 69.29 68.93 70.66
68.52 69.81 70.34 72.09 72.98 73.26 73.35 73.17 72.99 72.79 71.83 70.73 70.05 69.60 68.83 68.37 68.20 67.70 67.15 66.67 66.69 67.09 67.56 68.46 68.89 68.36 69.51 68.90 68.34 67.88 67.19 66.36 65.81 65.49 65.32 62.35 63.95 67.01 67.56 67.10 66.97 67.87 69.01
69.28 70.13 70.50 71.00 72.60 73.08 73.07 72.14 72.95 72.69 71.75 70.65 70.04 69.58 68.78 68.09 67.03 66.50 65.80 65.28 65.20 65.43 65.91 67.26 68.02 67.40 68.47 67.83 67.07 66.28 65.40 64.75 64.16 63.33 60.39 60.59 62.58 66.73 66.81 66.48 66.58 66.78 66.59
69.19 69.93 70.02 71.17 72.50 72.75 72.78 72.90 72.60 72.45 71.72 70.36 69.91 69.55 68.93 68.16 67.14 66.09 64.92 64.18 63.79 63.87 64.32 65.69 66.29 67.09 67.03 66.82 65.65 64.60 64.05 63.51 62.34 59.68 58.58 59.51 59.58 64.66 66.24 65.99 65.34 65.39 65.49
68.98 69.48 69.52 71.28 72.82 72.76 72.87 72.50 72.11 71.98 71.77 70.28 69.80 69.42 68.90 68.24 67.62 66.75 65.41 63.54 62.86 62.59 62.95 64.14 64.44 64.83 65.12 64.29 63.03 62.49 62.66 61.97 58.80 55.20 57.14 60.19 59.55 65.36 65.65 65.20 64.88 64.58 64.97
68.28 68.98 69.30 70.32 71.44 72.19 72.61 72.17 71.94 71.83 71.65 70.91 69.75 69.23 68.75 68.10 67.54 66.92 66.17 63.97 62.01 61.59 61.73 62.58 62.76 62.92 63.25 61.90 60.36 59.67 60.02 59.54 53.06 53.86 55.45 58.47 61.19 65.26 65.65 65.17 64.88 64.73 64.48
68.22 68.78 69.16 67.69 69.09 70.38 71.35 71.71 71.51 70.93 70.98 70.91 69.91 69.09 68.70 68.00 67.40 66.89 66.22 64.34 62.27 60.68 60.68 61.16 61.02 61.06 61.08 59.88 58.27 58.00 57.81 56.31 52.32 52.19 54.36 57.59 64.70 65.40 65.45 65.04 64.67 64.42 64.35
66.57 67.59 68.56 68.14 67.78 67.38 68.65 69.27 69.86 70.31 70.37 70.21 70.08 69.51 68.89 68.23 67.71 67.01 66.48 64.77 63.40 62.06 60.58 60.10 59.50 59.60 59.27 58.44 56.98 55.48 54.88 54.76 47.75 50.54 54.18 56.70 64.04 65.29 66.52 66.21 65.39 65.18 64.18
59.60 61.90 65.39 66.47 67.13 67.34 67.55 65.72 66.82 68.05 68.62 68.92 68.37 67.20 66.10 66.19 66.09 65.50 64.53 65.18 63.65 62.26 60.98 60.15 59.42 58.89 57.96 56.74 55.27 53.93 52.78 52.48 47.98 50.52 52.55 58.95 63.13 63.56 63.47 63.53 63.74 64.15 65.05
52.98 54.98 56.64 63.80 66.37 67.23 68.31 65.94 64.59 65.61 66.32 66.25 65.72 64.05 62.66 65.36 65.26 63.67 63.25 64.64 64.24 63.19 61.07 59.63 57.76 56.17 55.43 54.90 53.91 52.24 49.72 44.95 48.50 51.17 54.21 62.15 62.67 62.97 62.73 62.17 62.06 62.03 62.41
49.80 51.64 51.85 54.37 60.77 63.13 67.96 67.05 65.95 66.69 67.16 67.45 66.15 64.33 64.15 65.23 64.94 64.01 60.96 61.60 62.28 61.86 60.43 59.09 57.39 54.95 51.02 47.28 47.20 48.60 44.93 46.04 49.88 53.33 57.48 61.73 62.70 63.44 63.34 62.80 62.46 62.28 61.68
48.41 49.38 53.07 51.74 53.49 56.97 61.11 66.11 65.17 64.91 65.15 65.30 64.67 64.68 65.52 64.15 62.84 62.50 61.28 59.46 57.61 56.28 54.16 53.18 51.40 50.54 49.67 49.17 47.85 46.41 46.12 47.55 49.34 51.96 56.14 58.98 59.56 61.19 61.62 61.51 61.38 61.08 61.14
46.57 48.17 50.84 51.60 52.09 52.70 54.61 60.31 65.66 64.72 65.27 64.56 64.50 64.81 64.53 63.51 62.26 60.98 60.27 59.85 57.37 55.32 53.37 52.31 51.72 51.27 50.50 49.61 47.98 46.22 45.54 46.46 48.38 49.24 51.74 53.86 55.83 58.97 59.95 60.01 60.03 59.95 59.68
45.30 47.27 49.12 49.57 51.40 52.52 51.99 59.27 63.52 64.08 64.17 64.74 65.08 64.90 63.81 62.75 61.52 60.83 60.76 59.58 58.07 55.68 53.83 51.85 51.94 51.06 50.08 49.33 48.10 46.10 43.84 42.61 41.99 42.86 46.00 49.54 52.23 54.99 56.45 57.23 57.49 58.23 58.67
44.83 46.31 47.59 49.60 51.58 52.21 52.05 61.56 61.66 61.70 61.63 62.16 62.95 64.39 63.88 62.95 61.87 59.65 58.49 57.20 56.24 55.78 55.05 54.04 52.76 51.55 50.88 48.59 45.99 44.52 42.11 40.20 39.19 38.39 38.27 40.34 48.26 50.31 52.55 53.56 54.59 55.94 56.95
44.41 46.04 47.33 49.70 51.81 53.18 54.69 59.00 58.43 59.01 59.44 59.10 58.94 60.67 61.58 61.11 59.94 58.48 56.77 55.44 55.07 54.61 52.62 50.44 49.31 49.83 47.57 45.17 42.18 40.60 38.84 37.33 36.26 35.68 35.76 35.40 35.70 44.43 47.00 49.93 51.62 53.15 54.78
44.25 45.55 47.12 52.21 52.26 55.22 55.84 56.30 56.33 56.54 56.88 56.76 56.60 56.63 57.58 58.09 58.02 56.42 54.84 53.82 53.15 51.82 49.93 47.99 47.89 46.09 43.93 41.25 38.84 37.13 34.81 34.69 34.43 33.73 33.40 33.75 33.40 32.97 39.08 45.66 48.49 50.75 51.90
44.09 45.35 46.77 49.07 52.01 54.05 52.09 51.92 51.62 51.83 52.75 53.42 54.30 54.35 53.75 54.68 54.70 53.67 52.14 50.79 49.29 46.87 45.34 45.11 42.28 43.51 40.83 38.13 35.16 33.20 31.79 31.06 30.82 32.91 31.82 31.87 32.00 31.16 31.68 39.72 42.75 43.94 45.79
43.68 44.96 46.08 47.77 50.04 50.42 48.42 47.94 47.29 46.61 46.51 48.23 49.86 50.20 50.34 49.95 50.40 49.82 48.58 46.43 43.56 41.44 40.62 40.28 40.76 38.68 39.64 35.76 34.37 32.07 30.60 29.82 29.56 28.98 28.81 31.24 30.63 29.97 30.43 31.06 31.04 33.05 41.17
42.71 43.99 44.85 47.14 47.23 48.59 47.99 47.71 46.98 44.42 43.88 43.55 44.27 45.17 46.08 45.40 45.97 46.57 45.01 42.29 39.94 38.03 38.06 40.83 39.67 38.07 34.41 34.09 32.52 31.95 31.16 29.12 28.40 27.69 27.58 28.03 29.31 29.77 30.05 30.25 30.09 29.54 30.23
42.92 44.14 44.58 48.77 46.32 48.71 49.84 45.28 43.81 41.69 39.25 40.03 40.62 40.39 41.44 41.54 41.65 41.57 40.65 36.83 35.09 35.85 36.20 36.71 36.85 31.01 29.47 30.25 33.66 33.17 30.74 33.32 30.90 28.50 27.41 28.79 26.26 27.60 28.91 29.63 28.81 28.15 27.44
42.29 43.74 45.16 47.73 46.92 47.52 43.68 39.73 39.55 39.66 39.18 38.84 37.85 38.03 37.59 38.59 37.52 36.70 35.18 34.06 32.61 33.80 35.59 32.35 32.05 32.51 28.18 27.39 29.54 35.28 30.33 31.66 28.25 30.61 25.81 25.52 25.87 25.58 25.75 27.14 27.59 27.06 26.14
42.56 44.47 45.42 46.05 48.09 46.87 41.59 40.35 42.56 41.42 39.94 38.90 37.22 36.05 35.10 35.83 34.69 33.23 32.63 31.95 30.91 30.10 29.93 29.52 29.51 28.73 28.73 26.32 26.53 27.49 25.17 26.98 24.64 23.01 24.21 23.92 24.45 25.23 24.28 25.12 24.63 24.94 24.79
42.66 43.91 45.11 44.85 46.53 42.90 42.63 42.72 43.03 41.16 35.22 36.47 35.02 33.73 33.33 33.03 32.12 30.73 30.41 29.49 29.06 28.84 28.04 28.24 27.49 27.83 27.42 26.16 26.08 25.15 24.59 23.80 23.46 22.75 21.93 22.37 23.93 24.11 24.65 24.01 24.10 23.59 24.03
42.45 43.69 44.78 44.32 42.43 40.94 42.44 42.14 42.28 36.24 35.64 34.85 33.43 32.63 32.12 31.43 28.79 28.64 28.72 28.04 27.84 27.61 27.66 27.06 26.91 27.15 26.73 26.32 26.16 25.69 25.00 23.57 22.13 21.20 20.38 19.84 20.78 23.11 24.16 24.10 23.65 23.54 23.09

GFSSE_sfc_wetblb_063.txt.gz
Wetbulb
67.84 69.81 71.96 72.13 72.43 72.71 72.56 72.70 72.32 72.42 71.83 70.53 69.97 69.51 69.33 69.10 68.73 68.26 68.29 68.89 69.23 70.11 70.72 70.52 70.25 71.02 71.33 70.62 69.89 69.39 69.04 68.71 68.37 68.51 68.51 68.76 69.15 69.53 69.40 69.09 70.18 70.09 71.06
69.04 69.92 71.35 72.88 73.17 73.59 72.83 72.89 72.67 72.05 71.53 70.30 69.74 69.15 68.92 68.80 68.44 68.10 67.59 67.67 68.86 69.07 69.81 69.40 70.67 70.74 69.88 68.71 68.53 67.97 67.54 67.24 66.99 66.86 66.99 68.07 67.85 67.94 67.92 67.82 69.29 68.96 69.88
69.28 70.26 71.39 72.38 73.43 73.54 72.82 72.48 72.28 71.90 70.60 69.96 69.37 68.80 68.49 68.13 67.56 67.16 66.94 67.05 67.43 68.42 69.22 68.68 70.21 69.52 68.17 67.85 67.05 66.21 65.84 65.75 65.52 65.17 65.89 65.64 65.85 67.08 67.49 66.98 67.02 67.53 67.98
69.94 70.54 71.50 70.96 73.05 73.31 72.45 71.96 72.37 71.82 71.13 69.96 69.42 68.75 67.87 67.05 66.42 65.96 65.63 65.62 66.06 67.41 68.33 68.73 69.26 68.39 67.66 66.71 66.01 65.38 65.21 64.94 64.42 64.13 63.85 64.32 64.47 66.49 66.65 66.34 66.30 66.28 66.08
70.16 70.71 70.77 71.08 72.50 72.90 72.65 72.21 72.36 71.71 71.01 70.00 69.49 68.91 68.18 67.26 66.07 64.95 64.37 64.26 64.52 65.96 67.13 68.15 68.08 67.23 65.94 65.02 64.67 64.69 64.62 64.12 62.87 63.33 63.70 64.08 64.59 65.52 66.43 66.03 65.37 65.20 65.59
70.06 70.56 70.23 71.25 72.56 72.60 72.60 72.21 72.33 71.80 70.97 69.94 69.43 68.95 68.53 67.85 66.78 64.94 63.70 63.37 63.46 64.47 65.36 66.08 66.44 65.04 63.51 62.91 63.26 63.65 63.28 62.37 61.54 62.57 63.35 64.39 64.47 66.02 66.28 65.80 65.34 65.33 65.38
69.68 70.19 70.89 70.75 71.40 72.41 72.54 72.21 72.11 71.83 71.07 70.04 69.35 68.87 68.37 67.72 67.12 65.50 63.31 62.52 62.63 63.32 63.74 64.10 64.00 62.20 60.78 60.77 61.51 61.68 60.84 59.93 60.19 61.83 63.44 64.20 64.48 65.62 65.89 65.37 64.96 64.81 64.63
69.34 69.73 70.25 68.02 69.40 70.89 71.75 71.49 71.45 71.17 71.06 70.42 69.37 68.79 68.22 67.57 66.99 65.71 64.00 62.26 61.88 62.12 62.01 62.21 61.90 60.50 59.25 58.99 59.88 59.79 58.85 57.63 58.65 60.42 62.01 64.11 66.32 67.11 67.18 66.87 65.78 64.97 64.89
69.35 69.35 69.80 69.83 68.76 67.34 68.70 69.36 70.12 70.41 70.34 70.09 69.68 69.26 68.39 67.80 67.46 66.17 65.53 63.90 62.13 61.36 60.99 60.87 60.17 59.22 58.09 57.61 58.38 58.41 58.04 57.52 59.05 60.09 61.06 62.50 63.77 64.43 65.18 64.85 64.88 65.20 65.66
67.25 68.26 68.66 68.97 69.65 70.10 70.28 65.98 67.05 68.27 68.80 68.93 68.24 66.95 65.64 65.53 65.50 64.80 63.75 63.85 62.45 61.70 60.82 59.94 58.96 58.23 57.53 57.03 57.25 56.65 55.94 57.61 59.53 60.70 61.74 62.07 63.36 63.52 63.55 62.98 62.86 63.14 63.70
59.98 63.33 67.18 68.01 68.46 69.10 69.24 67.24 65.25 65.65 66.33 66.19 65.76 63.84 63.32 66.11 65.29 64.40 63.01 63.49 62.59 60.98 59.33 58.61 58.22 57.27 55.99 55.33 55.64 54.83 55.45 56.65 58.74 60.81 61.20 63.00 64.08 64.65 64.54 63.80 63.26 62.98 62.61
57.84 58.34 62.09 64.35 66.68 67.77 68.19 67.38 68.67 68.52 68.53 68.09 67.76 66.95 66.79 65.97 65.41 63.80 60.96 61.02 61.15 60.35 59.38 58.40 56.39 53.77 51.77 51.25 52.18 53.40 54.03 55.26 55.99 55.88 58.01 61.43 62.49 63.37 63.22 62.90 62.75 62.94 63.22
56.92 55.24 56.00 57.69 57.78 64.00 66.07 67.76 67.37 67.19 68.54 68.70 67.57 67.05 66.11 65.03 64.00 63.60 61.08 59.47 57.66 55.36 55.28 54.99 54.12 52.70 51.60 51.29 51.39 51.86 52.54 52.62 52.78 52.51 55.28 59.37 60.58 61.78 61.75 61.28 60.99 60.77 60.48
52.81 54.01 54.20 55.24 56.01 57.07 59.11 63.01 67.43 67.61 67.39 67.08 66.99 66.80 65.20 64.02 63.48 61.83 60.71 58.96 56.88 56.63 55.72 55.26 53.72 52.18 50.66 49.97 49.96 49.01 48.87 49.24 49.37 49.52 52.37 55.24 57.10 58.54 59.49 59.66 59.47 59.28 58.85
51.60 51.82 52.92 53.48 55.12 55.33 56.02 58.67 64.31 67.09 67.35 66.84 66.14 66.32 66.35 64.47 63.37 61.55 61.42 59.78 57.08 55.64 55.92 54.80 53.03 51.35 49.60 47.85 45.64 44.33 45.15 44.66 44.57 45.33 48.78 51.02 53.06 54.86 56.86 57.79 58.47 58.22 57.97
49.24 50.23 51.29 52.01 53.84 54.70 55.50 58.64 62.89 64.61 64.58 65.47 65.67 65.68 65.04 64.60 62.33 61.24 60.56 58.10 56.90 56.18 56.04 54.10 52.40 49.61 47.19 45.12 43.40 42.28 40.73 40.10 39.81 40.21 41.60 45.32 48.86 51.17 53.54 55.68 56.62 56.60 56.18
47.17 48.52 49.55 51.01 53.70 54.48 54.74 58.77 61.44 62.48 62.73 62.73 62.83 64.30 63.83 63.19 61.69 59.96 58.67 56.35 55.83 55.52 52.86 51.79 50.12 47.10 44.10 41.96 40.89 39.76 38.67 38.17 37.81 37.68 37.89 38.50 41.06 47.73 50.30 51.92 52.38 52.78 53.16
46.17 47.34 48.75 51.61 53.81 54.33 55.88 58.70 59.47 59.18 60.24 60.80 59.87 61.25 61.73 61.32 60.96 59.10 57.58 55.35 55.19 52.90 51.27 50.45 47.60 44.35 41.44 39.80 37.68 36.98 37.05 37.13 36.69 36.46 36.66 36.99 37.39 39.24 44.02 46.19 47.57 49.31 50.70
45.66 47.16 48.06 51.29 53.13 54.45 56.09 55.83 56.97 56.12 56.81 57.10 57.34 57.73 58.74 58.88 58.70 57.56 55.73 53.42 52.02 50.48 49.22 47.73 45.56 42.48 38.11 36.53 35.53 35.42 35.53 35.37 35.74 35.48 35.13 35.24 35.61 35.49 35.90 40.09 42.47 44.29 47.08
44.98 46.58 48.04 50.29 52.43 53.64 52.78 50.69 51.60 50.22 50.50 52.50 53.65 53.95 54.76 55.38 55.23 55.10 53.27 50.73 49.32 46.61 46.12 45.43 42.95 40.95 38.24 36.35 34.17 33.32 33.94 34.15 34.45 34.20 34.24 34.57 34.46 34.34 34.24 33.82 34.13 37.19 42.29
44.05 45.35 46.94 49.00 50.98 51.04 50.67 50.17 50.08 48.36 47.34 47.49 48.68 49.84 51.46 51.80 52.04 52.13 51.04 46.36 46.98 45.73 45.27 43.95 42.41 38.01 35.64 36.00 34.41 33.23 32.97 33.23 33.09 33.22 33.85 33.93 33.40 33.13 33.01 32.73 33.05 33.14 34.12
43.49 45.01 46.44 48.67 49.81 50.45 52.09 50.09 48.29 45.61 43.54 43.93 43.89 44.63 46.74 47.83 49.06 48.37 46.21 43.35 42.54 42.95 43.15 43.60 40.76 37.57 36.42 36.97 36.49 36.33 32.34 33.85 32.79 32.25 32.86 32.44 32.39 33.22 32.03 31.44 31.17 31.09 32.05
42.44 44.20 46.14 48.29 49.29 50.17 50.44 43.84 41.75 41.91 42.61 40.78 41.06 41.49 41.45 44.79 44.62 44.74 42.47 40.32 41.98 44.83 43.44 43.18 40.66 38.65 35.93 34.49 37.44 40.61 35.62 36.16 34.91 33.62 30.71 31.34 31.41 31.67 31.47 30.74 30.03 29.95 30.57
42.47 44.71 46.46 48.12 48.59 49.10 44.84 46.72 45.63 46.79 44.23 42.31 42.20 40.29 38.87 40.48 40.91 41.23 38.33 39.59 41.06 43.66 42.39 41.48 40.11 38.79 37.70 35.35 32.50 31.78 33.29 36.85 33.84 29.07 30.73 30.37 30.66 30.42 30.63 30.40 29.42 29.34 29.91
42.63 43.87 46.09 47.64 48.10 47.27 44.98 47.24 46.76 45.72 43.38 41.14 39.49 38.33 36.76 36.81 37.59 37.21 36.78 36.98 37.91 39.75 40.53 38.89 36.01 35.48 37.36 34.96 33.24 31.42 31.20 30.70 30.66 31.15 28.26 28.47 29.83 30.47 30.83 30.50 29.98 29.12 28.92
41.63 43.86 45.54 46.37 48.03 44.36 44.14 45.71 46.54 45.08 38.66 38.53 37.39 36.93 35.56 34.74 33.86 33.78 33.36 34.58 34.96 35.81 36.24 35.85 34.82 34.63 33.87 33.16 33.09 32.32 32.03 31.96 30.27 29.96 28.59 27.89 28.99 29.24 30.21 30.24 29.48 29.07 28.80

GFSSE_sfc_wetblb_069.txt.gz
Wetbulb
67.49 69.38 70.97 71.13 71.12 71.15 71.78 71.31 70.83 70.91 69.90 69.64 69.28 69.03 68.83 69.00 69.39 69.11 70.73 71.18 71.13 71.97 71.56 70.60 69.31 68.58 68.24 68.31 68.15 68.16 67.90 67.97 68.55 68.83 68.54 68.48 68.85 69.12 69.11 68.83 69.46 68.76 70.24
69.73 70.04 70.64 71.88 71.38 71.56 71.93 71.65 71.38 70.92 69.69 69.34 69.11 68.93 68.67 68.35 68.75 69.07 69.28 70.51 70.63 71.16 70.72 69.69 68.70 68.05 67.07 66.63 67.10 67.08 66.98 66.84 68.35 68.72 68.16 67.93 67.08 67.32 67.55 67.59 68.26 67.39 68.84
69.79 70.21 70.08 71.58 71.98 71.95 72.07 71.94 71.30 70.66 69.54 69.10 68.65 68.16 67.90 67.87 68.04 68.37 68.78 70.16 70.17 70.39 69.70 68.91 67.93 67.27 66.21 65.93 66.21 66.05 65.95 66.03 67.48 68.00 67.02 64.91 65.30 66.75 67.09 66.57 66.74 66.98 67.20
70.40 70.85 70.42 70.72 72.20 71.86 72.06 71.70 71.23 70.38 69.17 68.48 67.89 67.33 66.92 66.74 66.98 67.64 68.34 69.15 69.90 69.75 69.44 68.47 66.94 66.19 65.76 65.81 65.81 65.81 65.84 66.54 67.33 66.85 64.97 64.45 64.36 66.43 66.66 66.27 66.16 66.09 66.07
70.54 71.15 71.37 71.02 72.55 71.91 71.87 71.81 71.24 70.63 69.34 68.45 67.89 67.09 66.07 65.72 65.72 66.53 67.57 68.05 69.09 69.03 67.93 66.43 65.98 65.67 65.49 65.57 65.55 65.64 65.68 66.89 66.58 64.93 64.94 64.88 64.69 65.24 66.10 65.92 65.58 65.55 66.29
70.32 71.21 70.10 71.77 72.49 71.78 71.68 71.69 71.27 70.50 69.38 68.89 68.47 67.35 65.82 65.05 64.90 65.69 66.52 66.84 67.37 66.87 65.53 64.94 64.84 64.75 64.84 65.10 65.03 65.22 65.73 67.25 65.88 65.19 65.32 65.14 64.19 66.55 66.36 66.36 66.25 66.59 66.26
69.59 70.53 71.05 71.35 71.72 71.86 71.64 71.65 71.23 70.64 69.74 69.05 68.51 67.61 65.68 64.48 64.31 64.92 65.28 65.74 65.98 64.49 63.71 63.44 63.59 63.70 64.07 63.97 64.07 64.40 65.69 65.85 64.27 63.69 63.60 65.05 65.39 67.60 67.86 66.91 66.27 65.92 66.58
69.70 70.92 70.45 68.45 69.69 70.49 71.01 70.87 70.82 70.51 69.98 69.16 68.30 67.53 65.74 64.41 64.14 64.15 64.51 64.62 64.31 62.98 62.03 62.12 62.71 63.11 63.31 63.09 63.33 63.43 63.93 63.35 62.31 62.12 62.56 63.33 64.87 65.58 66.19 65.27 64.89 64.50 64.41
69.99 70.15 70.02 70.17 69.41 67.39 68.75 68.81 69.39 69.78 69.61 69.25 68.79 68.07 66.78 65.37 64.75 64.55 64.13 63.55 63.12 61.80 60.82 61.14 61.95 62.64 62.92 62.89 63.04 63.31 63.27 62.78 62.23 62.76 62.33 62.68 64.07 64.09 64.04 64.13 64.20 63.69 63.34
68.91 69.17 69.42 70.01 70.08 70.17 70.61 66.26 67.27 68.09 68.52 68.34 67.49 65.94 64.66 64.42 63.78 63.26 62.36 62.82 61.79 60.77 60.16 60.24 61.43 62.14 61.93 61.70 61.51 62.17 62.06 62.17 62.39 62.71 62.77 63.19 64.96 65.87 65.59 64.48 63.06 62.12 61.44
67.46 68.48 69.01 68.99 69.00 69.40 69.78 68.14 65.67 65.97 66.32 65.78 64.73 62.67 62.16 63.48 62.76 62.78 61.10 61.75 61.18 60.19 59.92 60.26 60.97 60.59 59.74 59.76 60.43 60.84 60.58 60.45 61.37 61.81 61.89 63.00 63.99 64.58 64.23 62.78 61.87 61.09 60.47
67.38 67.75 68.50 68.64 68.64 68.95 68.93 69.80 69.82 69.51 69.20 67.97 66.61 65.00 66.08 65.63 64.42 61.83 59.12 59.95 60.43 59.80 59.32 59.56 60.09 59.98 59.70 59.27 58.77 59.82 60.11 59.42 59.65 59.38 60.49 62.30 62.62 62.65 62.20 61.29 60.90 60.36 59.01
67.62 67.62 68.25 68.55 68.67 68.83 68.52 69.90 70.19 70.17 69.90 69.21 67.50 67.12 67.44 65.26 63.05 62.41 59.87 59.14 58.01 56.83 56.43 56.28 57.12 58.17 58.79 58.74 58.08 58.08 58.71 58.24 57.41 57.15 56.86 60.63 61.51 61.17 60.76 60.30 59.61 58.60 58.04
66.36 67.49 68.34 68.81 68.45 69.52 69.94 69.52 69.63 69.38 69.29 68.96 68.69 67.35 66.65 64.31 63.62 62.01 61.51 60.25 59.98 59.71 58.75 58.23 57.36 57.50 57.01 56.77 56.45 55.76 56.43 56.29 55.80 55.69 54.57 56.85 59.39 59.66 59.99 59.17 58.31 57.51 56.78
65.39 66.72 67.87 68.61 69.04 69.11 69.34 69.25 69.16 69.07 69.55 69.26 69.04 68.43 67.30 64.67 64.36 63.61 60.44 58.64 59.04 59.45 58.68 57.27 56.51 55.39 54.35 54.12 53.42 52.76 53.22 53.50 52.83 53.38 53.72 54.36 57.62 58.06 58.14 57.78 57.19 56.84 56.25
65.55 66.17 67.32 68.07 67.68 66.90 67.50 68.27 68.30 69.11 69.06 69.22 68.47 68.52 67.86 66.06 65.07 63.08 59.68 58.11 58.79 59.28 57.65 56.40 54.89 52.83 51.58 51.38 48.79 48.80 49.26 49.88 50.00 50.77 52.28 51.05 53.90 54.94 55.44 55.98 56.21 55.74 55.40
65.50 65.86 66.37 66.55 67.27 66.85 66.14 67.22 67.72 68.33 68.26 68.78 68.68 68.72 67.99 66.72 64.73 63.20 60.30 59.56 59.64 58.87 56.85 52.84 49.98 48.29 46.83 46.19 45.51 45.07 44.90 45.17 45.60 47.32 49.11 48.65 49.06 51.65 52.71 53.62 53.84 53.96 53.97
64.78 64.73 65.68 64.49 64.41 65.18 65.26 66.19 66.55 67.42 67.71 68.06 68.46 68.35 68.04 67.20 65.52 63.23 62.21 61.22 58.32 57.15 52.27 49.64 47.29 45.57 44.23 43.74 44.12 43.36 42.79 42.65 42.54 42.74 44.58 45.27 46.02 46.75 48.73 50.22 51.14 51.68 51.99
63.33 64.17 64.54 63.74 62.61 63.47 64.32 65.27 65.42 66.07 66.39 67.30 67.78 67.55 68.01 67.16 66.10 63.49 61.75 59.23 56.83 54.06 52.24 47.41 46.09 45.82 43.20 42.20 42.31 42.58 41.88 41.19 41.24 40.63 40.24 40.77 42.52 43.72 44.18 45.99 46.92 48.03 49.39
62.27 63.35 63.45 62.83 61.62 62.18 63.02 63.02 63.50 64.46 64.00 65.42 66.14 65.57 64.90 66.39 65.30 63.41 60.35 56.98 55.52 53.33 49.50 48.09 44.34 44.51 42.16 40.93 40.47 40.26 40.53 40.56 40.92 40.03 38.91 39.12 39.34 39.61 40.03 41.28 43.25 43.62 46.08
59.43 60.33 61.47 61.03 60.38 60.97 60.21 59.30 59.51 59.70 61.77 60.41 60.82 62.42 63.06 62.18 62.26 61.01 58.28 56.03 54.68 52.77 50.22 47.89 41.88 39.76 39.53 40.79 38.31 38.42 38.21 38.98 38.88 39.05 39.27 38.39 37.79 37.88 38.24 38.78 39.58 40.47 41.04
56.35 57.94 58.10 58.08 58.14 58.28 58.48 58.36 58.34 57.95 58.11 58.46 57.76 58.12 58.59 58.98 60.08 58.87 56.34 54.61 53.25 50.66 46.97 42.68 40.41 39.97 39.06 40.16 40.33 39.07 33.76 35.09 36.71 37.57 38.41 37.54 36.81 37.09 36.37 36.63 37.19 38.11 39.30
54.34 55.73 55.93 56.10 56.25 56.57 57.35 57.63 57.14 56.72 56.41 54.51 55.22 54.12 52.66 54.11 56.01 56.23 55.40 53.91 51.80 50.03 46.60 42.40 41.18 41.71 37.26 39.59 42.23 43.46 36.72 36.59 34.16 35.98 36.24 36.60 36.33 36.16 35.72 35.44 35.28 35.95 37.11
54.59 55.20 55.24 55.58 55.62 55.98 57.09 56.35 55.60 54.38 52.98 52.84 53.78 53.17 50.16 50.45 52.46 53.69 54.30 53.38 52.00 50.88 48.20 43.42 43.55 42.83 41.28 39.34 43.15 44.67 43.96 41.40 35.62 29.91 34.84 35.12 36.09 35.28 35.25 34.83 34.27 34.48 35.37
55.09 54.92 55.09 54.67 54.74 55.35 56.20 56.25 55.82 53.66 53.83 55.93 55.79 53.18 50.32 47.06 49.02 50.18 50.23 50.67 49.81 49.69 48.03 45.07 42.19 43.67 42.64 42.01 42.53 41.84 41.48 42.92 43.34 36.35 30.06 31.14 33.77 34.94 35.30 34.40 34.46 33.63 33.82
55.04 54.51 54.37 53.56 53.44 54.52 55.17 55.64 55.30 53.73 54.17 55.27 53.94 50.85 48.42 46.22 44.94 45.44 46.50 47.77 48.44 48.03 46.61 44.95 43.72 44.62 43.27 44.10 44.38 42.21 40.14 38.34 36.97 37.38 34.64 31.58 30.78 32.66 34.40 34.40 33.54 33.90 33.88

GFSSE_sfc_wetblb_072.txt.gz
Wetbulb
65.78 68.33 71.26 71.16 70.57 71.14 71.59 70.99 70.31 70.44 69.73 69.24 69.08 69.03 69.58 69.66 70.70 71.17 71.80 71.44 71.09 70.85 69.39 68.70 68.23 68.23 67.98 67.99 68.27 68.25 68.31 68.50 68.71 68.49 68.25 68.58 68.97 69.21 69.24 69.04 69.06 67.72 70.32
67.34 68.68 70.71 71.68 71.00 71.41 71.43 71.31 70.99 70.53 69.74 69.14 68.93 68.71 68.73 69.40 69.18 70.04 70.65 70.81 71.32 69.54 68.95 67.98 67.76 67.16 67.22 67.10 67.21 67.23 67.42 68.95 68.31 67.59 67.40 67.56 67.16 67.46 67.59 68.23 68.39 66.93 68.60
68.06 68.80 69.87 71.53 71.85 71.44 72.06 71.39 70.91 70.40 69.19 68.75 68.36 68.36 68.39 68.45 69.05 69.36 69.70 70.47 70.55 69.42 68.45 67.31 66.93 66.69 66.50 66.22 66.57 67.06 67.64 68.34 67.94 67.30 66.52 63.01 63.88 66.84 67.11 67.13 67.81 67.58 67.53
68.40 67.99 69.41 70.78 71.84 71.70 71.95 71.31 70.64 70.15 68.86 68.22 67.78 67.52 67.54 67.81 68.57 68.94 69.51 70.61 69.75 68.85 67.41 66.82 66.61 66.34 66.05 66.37 66.55 66.91 68.32 68.05 67.03 65.96 62.97 62.45 63.33 66.65 66.83 66.62 66.69 66.58 66.53
68.31 69.00 69.73 70.82 72.10 71.89 71.67 71.27 70.68 70.03 69.01 67.84 67.13 66.73 66.54 67.04 67.83 68.14 69.29 69.35 68.28 67.16 66.70 66.32 66.07 66.11 66.05 66.28 66.42 66.56 67.70 67.26 65.90 63.64 61.39 61.41 62.10 65.61 66.80 66.24 66.28 66.59 67.20
68.37 69.53 69.68 71.42 72.20 71.74 71.73 71.37 70.80 69.84 68.77 68.18 67.11 66.22 65.84 66.16 67.17 67.55 67.93 67.76 66.55 65.88 65.86 65.51 65.58 65.66 65.64 65.71 66.63 68.43 67.67 66.60 65.47 63.58 64.01 65.14 65.15 68.03 67.71 68.02 66.74 67.19 66.43
68.62 69.75 70.28 71.17 71.52 71.53 71.43 71.37 70.76 70.28 69.29 68.50 67.12 65.80 65.21 65.57 66.10 66.34 66.97 66.09 65.05 64.66 64.51 64.61 64.93 64.85 64.84 64.71 64.84 66.52 66.25 65.03 62.50 61.91 62.40 63.41 64.45 66.91 66.96 66.18 65.90 65.44 65.00
68.76 69.72 70.18 68.66 69.57 70.33 70.68 70.76 70.53 70.25 69.72 68.65 67.22 65.57 64.86 65.17 65.44 65.58 65.66 64.48 63.70 63.36 63.66 64.04 64.20 64.04 63.99 64.42 65.08 65.14 64.73 62.47 59.98 58.91 58.53 59.81 64.72 65.02 65.39 64.60 64.34 64.05 63.80
68.93 68.91 69.05 69.91 68.87 67.59 68.55 69.03 69.58 69.58 69.18 68.80 67.98 66.51 65.53 65.40 65.52 65.56 65.10 63.32 62.40 62.50 63.09 63.52 63.57 63.49 64.09 64.34 64.49 64.10 63.25 62.74 60.86 61.09 61.66 60.22 64.66 65.83 65.41 64.38 63.42 63.12 62.80
67.36 67.90 67.11 67.89 69.09 68.89 68.11 66.13 66.94 67.83 67.93 67.81 66.61 64.87 63.65 63.53 63.48 63.46 62.71 62.87 61.48 61.68 62.45 62.99 62.91 63.29 62.90 63.10 63.51 62.41 61.87 61.77 59.69 60.17 60.99 62.82 65.07 65.11 64.33 63.03 61.80 60.92 60.43
66.61 66.69 67.42 67.63 67.77 68.34 68.68 66.02 65.01 65.82 65.88 65.13 63.74 62.06 60.37 59.69 59.19 60.22 60.71 61.74 61.19 61.22 62.01 62.26 62.08 61.13 60.57 60.96 61.85 61.17 60.65 59.34 58.63 58.63 60.19 63.44 63.88 64.00 63.31 61.76 60.16 59.74 59.12
64.62 65.81 66.68 67.17 67.16 67.90 68.76 67.04 67.60 67.25 66.40 65.00 63.12 61.16 61.55 60.73 60.05 59.25 58.36 60.08 60.70 60.64 61.00 61.50 60.99 60.88 58.23 55.30 56.06 58.31 57.39 56.34 55.99 56.96 59.38 62.33 62.46 62.93 62.15 59.75 59.70 58.71 58.15
64.42 65.86 66.28 66.78 66.95 67.00 67.40 68.09 67.73 67.43 66.69 65.02 62.89 62.15 64.25 59.97 58.15 57.56 56.43 55.78 55.03 55.71 56.18 56.72 57.52 55.58 55.35 54.53 54.15 54.68 54.15 53.15 52.44 53.02 56.54 60.84 61.31 61.09 60.02 59.34 58.57 57.93 57.46
64.32 64.60 66.22 66.99 66.46 67.00 67.32 67.71 67.17 67.20 66.81 65.94 64.57 63.55 62.98 60.25 59.48 56.64 55.95 54.94 53.77 53.02 52.16 53.61 53.73 53.81 53.20 52.90 52.21 52.61 52.35 51.19 52.82 52.68 53.54 58.16 59.88 59.44 59.14 58.58 58.06 57.34 56.63
62.04 63.98 65.15 66.30 66.67 66.99 67.34 67.12 66.79 66.83 66.65 66.29 65.74 64.72 63.96 61.45 60.34 58.04 57.73 56.99 55.64 56.97 54.58 53.35 53.00 51.88 50.97 50.13 49.83 49.77 49.09 48.77 49.88 50.73 49.45 54.68 57.84 57.78 57.97 58.16 57.42 56.88 56.13
62.35 62.70 65.55 65.46 66.75 67.07 67.04 66.59 66.66 66.01 66.84 66.53 66.49 65.78 65.09 62.52 61.37 59.27 56.74 56.79 56.83 56.57 53.93 54.39 51.89 49.51 47.87 46.79 46.27 46.45 45.92 46.22 47.03 47.67 46.59 47.93 55.14 56.25 56.48 56.57 56.50 56.13 55.41
60.97 62.83 63.24 65.12 66.09 65.92 64.55 65.42 65.98 65.90 65.86 65.93 65.65 66.37 65.52 63.58 62.25 60.00 56.51 56.33 57.03 56.28 54.14 50.19 48.82 47.02 43.56 42.81 41.75 41.48 41.68 42.20 43.23 45.12 44.33 44.35 45.46 52.74 54.04 54.46 54.57 54.56 54.21
60.30 61.80 62.91 64.59 65.24 64.53 64.10 64.01 63.76 64.30 64.73 64.96 65.83 65.94 65.64 65.12 63.55 61.25 56.97 56.42 57.68 54.87 50.02 47.41 45.61 44.25 42.58 39.69 39.22 37.86 37.71 38.45 38.85 39.61 40.68 41.48 42.17 43.45 48.28 51.83 52.15 52.55 52.66
59.48 61.34 61.72 62.89 62.84 63.70 63.08 62.72 62.83 62.95 62.98 63.83 64.21 65.62 65.46 65.07 63.56 61.53 59.09 57.17 56.39 52.28 49.45 46.87 43.87 43.27 41.62 40.14 38.75 36.93 36.04 35.74 35.93 37.65 36.37 37.82 40.49 40.45 40.71 47.11 47.83 49.67 50.54
57.84 59.97 61.56 62.37 61.38 60.94 60.94 60.91 60.98 61.05 61.50 62.68 62.71 63.15 64.61 65.19 64.04 61.94 60.81 56.93 54.22 51.31 48.30 45.91 43.71 42.31 41.52 40.37 39.61 37.97 35.06 34.88 34.74 33.48 33.90 35.79 35.15 36.01 36.17 38.43 38.43 41.98 47.67
55.02 57.55 60.75 61.04 60.22 60.18 59.91 59.38 58.55 59.12 59.34 60.38 61.36 61.83 62.80 63.74 64.45 61.98 59.74 56.41 53.93 51.15 48.17 46.02 43.21 40.70 39.57 39.77 36.92 36.20 34.82 34.00 33.46 33.11 32.90 32.47 33.24 33.88 33.69 33.84 34.28 36.02 38.74
53.27 55.92 58.19 59.95 59.57 59.24 59.68 59.49 58.83 58.06 56.89 58.52 57.71 58.26 59.55 60.04 61.45 60.48 58.23 55.48 54.06 51.70 48.26 43.98 41.60 39.42 38.21 38.01 37.14 35.79 30.62 30.43 31.86 33.20 32.23 33.02 30.86 32.09 32.30 33.03 33.01 34.09 34.48
50.05 52.33 55.89 58.13 58.93 58.66 58.37 56.47 53.48 52.78 51.76 52.07 53.70 55.55 56.64 57.36 59.69 59.07 57.28 55.72 54.15 52.14 47.72 42.84 41.36 40.44 37.44 38.38 39.11 39.47 32.09 29.27 28.22 30.48 30.95 31.18 30.69 29.96 29.91 31.18 32.11 33.46 33.75
50.16 51.36 52.80 53.84 54.31 55.74 55.54 54.05 53.39 52.72 51.40 51.95 51.84 51.55 53.58 53.74 56.76 57.65 56.45 55.14 54.04 52.42 48.37 43.54 42.74 42.44 39.81 37.27 38.65 41.41 40.39 33.12 28.52 24.25 29.00 29.61 30.80 30.85 29.60 29.78 30.13 31.82 32.86
48.70 48.41 49.33 50.87 51.23 51.55 53.04 53.23 52.40 50.95 50.44 49.76 49.11 48.91 49.52 50.76 53.54 54.61 54.94 53.93 52.70 51.40 48.44 44.62 42.48 42.42 41.10 40.56 40.08 40.25 38.74 36.77 33.45 27.47 23.54 25.72 27.79 29.58 30.26 29.64 30.34 29.60 31.07
48.27 48.52 48.45 48.76 49.91 50.98 51.45 52.39 51.61 51.36 49.28 48.05 49.00 49.66 49.90 49.08 49.62 50.69 52.31 53.14 52.44 51.34 49.17 45.94 44.30 43.42 42.45 42.25 41.95 41.49 39.41 37.15 32.83 30.08 25.51 24.68 25.92 27.43 29.45 29.74 29.76 29.91 29.37

GFSSE_sfc_wetblb_075.txt.gz
Wetbulb
64.73 68.21 71.18 71.30 71.18 71.41 71.27 70.54 69.98 69.95 69.37 69.20 69.63 70.03 69.64 70.30 71.24 71.40 71.12 71.08 70.32 68.70 68.24 68.19 68.33 68.15 68.42 68.52 68.26 68.07 67.54 67.81 68.68 68.64 68.65 68.98 69.29 69.76 69.59 69.65 69.14 67.57 69.91
66.22 68.79 70.79 71.34 71.41 72.06 71.62 70.49 70.36 69.64 69.45 69.03 68.90 69.45 69.49 69.97 70.44 70.92 70.40 70.60 69.05 67.83 67.99 67.54 67.46 67.79 67.65 67.50 68.08 68.77 67.59 67.59 67.65 67.37 67.20 67.21 67.93 68.23 68.72 68.77 68.79 66.98 68.50
66.82 68.93 70.30 71.22 71.93 72.16 71.78 71.11 70.49 70.05 68.87 68.69 68.68 68.62 69.17 69.61 69.70 70.66 69.97 70.21 69.00 67.52 67.36 67.11 66.95 67.17 67.26 68.12 68.79 68.88 68.29 68.02 67.08 66.66 66.39 63.13 64.13 67.30 67.49 68.08 68.05 67.08 67.14
67.47 68.59 70.04 70.51 71.99 72.05 71.50 70.90 70.34 69.95 68.73 68.26 68.06 68.19 68.55 69.13 69.28 70.59 69.81 69.62 68.01 67.17 66.94 66.75 66.75 67.19 67.17 67.43 68.32 68.46 67.66 66.71 66.15 65.00 61.43 62.19 63.36 66.87 67.07 66.72 66.77 66.68 66.42
66.58 68.29 69.61 70.50 71.93 71.97 71.34 70.69 70.14 69.59 68.78 67.61 67.37 67.53 68.13 68.54 69.39 70.05 68.74 67.87 66.98 66.63 66.46 66.56 67.00 67.15 66.99 67.64 68.74 67.95 66.62 66.39 65.58 63.02 60.15 63.46 64.50 66.09 67.69 67.78 67.16 67.22 67.66
66.55 68.94 69.51 71.09 71.91 71.86 71.21 70.63 69.93 69.12 67.95 67.17 66.77 66.74 67.56 68.09 68.53 68.42 67.35 66.71 66.33 65.80 65.94 66.15 66.71 66.54 66.66 67.77 68.42 67.15 66.69 65.92 65.16 63.67 64.24 65.06 64.51 67.84 67.19 66.44 65.90 66.08 66.16
67.37 68.48 69.71 70.65 71.26 71.52 71.33 70.74 70.13 69.42 68.19 67.05 66.31 66.15 66.92 67.08 67.72 67.32 66.36 65.89 65.42 65.08 65.42 65.63 66.09 65.43 65.50 66.60 67.25 65.97 64.92 63.88 60.58 62.16 62.78 62.52 63.32 66.43 66.35 65.93 65.13 64.46 64.20
67.73 69.32 69.96 68.23 69.29 70.22 70.74 70.52 70.16 69.68 68.76 67.25 66.28 65.76 66.20 66.23 66.69 66.25 65.33 64.71 64.49 64.50 64.67 64.91 65.03 65.28 65.65 65.80 65.46 64.66 63.76 61.90 58.73 57.37 58.20 60.77 64.62 64.93 65.26 64.66 64.21 63.93 63.43
69.09 69.37 69.41 69.29 68.41 67.44 68.47 68.77 69.22 69.18 68.66 67.57 66.71 66.33 66.35 66.32 66.47 65.03 64.41 63.54 63.85 64.00 64.17 64.21 64.62 64.88 65.11 64.94 64.46 63.69 62.90 62.20 59.26 60.43 61.25 61.42 64.94 65.00 64.79 64.01 62.80 62.05 61.16
67.56 68.63 68.37 68.17 68.37 68.20 67.77 66.06 66.69 67.40 67.63 66.99 65.57 64.34 63.54 63.96 64.36 63.87 62.47 63.24 63.25 63.64 63.58 63.91 63.85 63.90 63.89 63.59 63.14 62.28 61.34 60.99 58.86 60.55 62.09 62.75 64.16 63.83 62.85 61.70 60.41 60.03 59.76
66.50 66.86 67.32 67.59 67.85 67.84 67.43 65.48 64.81 65.22 65.24 64.20 62.72 61.21 59.63 59.32 59.36 59.19 60.40 62.09 62.77 62.99 63.09 63.24 62.17 61.95 61.62 61.59 61.35 60.49 58.90 56.35 57.30 58.91 61.50 63.14 63.37 62.82 61.06 60.14 59.54 59.31 58.83
64.13 65.50 66.41 67.02 67.32 67.68 68.14 65.66 66.07 65.68 64.94 63.12 61.19 59.04 58.89 58.09 58.47 58.63 58.11 60.32 61.96 62.04 62.36 61.95 61.44 59.97 56.80 54.65 55.30 57.25 54.10 53.19 53.35 55.98 60.37 62.65 62.33 61.28 60.43 59.46 58.98 58.49 57.88
62.95 64.74 66.31 67.03 67.47 67.75 67.80 66.82 66.52 66.00 64.49 62.76 60.26 60.06 59.60 58.16 57.40 56.82 55.92 55.47 56.22 57.28 57.95 58.16 55.50 54.38 53.37 53.64 53.30 53.59 52.73 51.33 50.71 52.25 59.66 61.43 60.97 60.76 59.40 58.88 58.13 57.74 57.28
61.75 63.37 65.31 66.83 66.07 66.94 67.85 67.33 66.77 66.22 64.94 62.89 60.68 61.00 59.18 57.00 55.98 55.25 54.92 54.01 53.31 53.24 52.65 52.76 52.56 51.88 50.89 51.05 51.66 50.63 49.75 49.49 49.98 51.27 54.56 58.73 60.08 58.97 58.85 58.21 57.58 57.06 56.64
61.36 62.60 64.02 66.02 66.40 66.54 67.24 67.36 67.04 66.30 65.65 64.09 62.06 61.87 60.64 57.87 55.56 54.92 54.16 53.71 52.16 51.59 52.28 52.02 51.22 50.25 48.83 49.23 48.89 48.73 48.06 48.44 48.80 49.03 49.71 55.36 58.11 57.96 58.25 57.66 57.24 56.59 56.24
62.77 62.90 63.89 65.03 66.12 66.64 66.71 67.04 66.07 66.53 66.19 65.37 64.00 62.99 61.43 59.83 56.58 55.46 54.55 53.95 53.00 53.38 52.54 51.69 49.72 48.11 46.35 46.75 45.96 46.19 45.81 46.91 45.73 45.49 46.24 49.31 55.76 57.42 56.79 56.96 56.83 56.31 55.70
60.79 63.02 63.61 64.41 65.42 65.94 66.58 66.79 66.02 65.98 66.27 65.51 64.95 64.22 62.99 61.61 58.08 57.23 55.75 54.88 54.85 54.22 54.19 51.89 49.79 45.92 44.81 43.84 41.63 42.16 43.19 43.94 43.87 43.13 43.56 43.83 44.61 51.77 55.85 55.50 55.34 55.08 54.93
58.24 60.57 63.86 64.62 64.40 65.03 65.94 66.20 65.69 66.07 65.46 65.81 65.56 65.23 64.48 62.64 60.80 57.44 55.78 55.15 54.78 52.61 50.54 49.85 46.66 43.01 40.33 41.46 39.67 37.43 37.54 38.59 39.28 40.24 40.86 41.87 42.05 42.96 48.90 53.22 53.35 53.56 53.62
58.06 60.34 61.63 63.96 63.68 63.77 63.86 64.93 63.12 64.29 64.84 64.89 65.37 65.37 64.66 63.32 62.14 59.05 56.94 56.10 54.38 50.61 48.82 47.31 44.52 43.27 40.21 38.69 38.65 37.60 35.72 34.88 35.52 37.24 37.62 40.40 41.39 40.28 40.15 47.27 49.64 51.79 51.87
56.74 59.11 61.84 62.78 63.83 63.70 63.16 63.07 61.85 61.07 62.27 63.69 64.10 64.68 64.69 63.98 62.82 60.72 58.18 56.69 54.97 50.47 47.46 46.39 43.43 42.10 40.09 39.25 38.52 36.86 36.11 33.44 33.29 32.80 33.37 37.12 37.92 37.46 36.68 38.18 38.57 43.24 50.05
54.84 57.24 60.24 61.00 61.54 62.80 61.19 61.10 61.29 61.29 60.79 59.14 61.54 62.16 63.78 64.17 63.10 61.09 59.16 56.72 54.14 50.94 47.95 45.52 43.01 40.73 39.31 38.80 36.48 35.65 35.55 33.32 32.10 31.69 31.62 31.56 32.66 33.26 33.73 35.42 35.50 35.96 40.06
53.48 56.42 58.96 60.49 60.65 61.99 62.76 62.17 61.37 60.25 57.03 61.26 58.14 59.27 61.94 63.73 63.12 61.47 59.76 56.30 54.20 51.40 47.36 44.65 42.27 40.09 38.91 38.81 36.09 35.02 31.01 30.62 33.05 31.87 30.78 31.65 30.32 31.44 31.96 32.51 32.47 34.19 34.51
49.12 53.71 56.92 59.51 59.95 61.08 61.06 57.88 54.76 54.44 52.75 54.23 55.44 57.81 57.69 60.80 62.51 61.70 59.38 56.95 54.42 52.29 47.55 45.04 42.64 41.33 38.56 38.23 38.29 38.28 31.68 30.34 27.83 29.71 29.56 30.01 29.20 28.71 29.15 30.48 31.74 33.47 33.32
49.26 52.54 55.51 57.86 58.72 59.57 58.38 57.60 57.43 57.54 56.70 58.14 58.98 55.98 52.79 55.37 58.93 59.80 58.90 56.92 55.08 53.23 49.58 45.83 43.89 43.70 42.03 37.35 38.23 40.02 39.80 34.12 28.51 25.04 28.73 29.97 28.99 29.08 27.67 28.25 29.41 31.59 32.14
46.54 47.07 50.44 53.28 55.09 57.33 57.56 57.32 56.60 56.21 56.33 48.97 48.89 49.76 49.39 49.73 54.73 57.27 57.05 56.34 55.10 53.90 51.00 47.02 44.07 43.92 43.08 40.88 40.90 39.65 38.97 35.33 32.37 30.16 27.09 27.34 27.98 27.97 28.34 28.66 27.86 28.70 31.03
44.74 45.42 47.12 49.66 50.58 51.73 55.84 53.70 53.28 54.01 48.44 47.49 46.80 47.62 46.85 48.51 50.87 53.49 53.92 55.61 55.29 53.96 51.35 47.59 45.03 44.19 42.88 43.40 42.00 42.83 40.21 37.20 34.03 29.30 27.56 27.82 28.35 28.45 28.26 27.55 28.18 28.33 28.74